TimeMST,TemperatureF,Dew PointF,Humidity,Sea Level PressureIn,VisibilityMPH,Wind Direction,Wind SpeedMPH,Gust SpeedMPH,PrecipitationIn,Events,Conditions,WindDirDegrees,DateUTC
12:53 AM,34.0,21.9,61,30.13,10.0,SW,9.2,-,N/A,,Clear,220,2012-12-05 07:53:00
1:53 AM,32.0,21.0,64,30.14,10.0,SW,9.2,-,N/A,,Clear,220,2012-12-05 08:53:00
2:53 AM,32.0,21.0,64,30.12,10.0,West,9.2,-,N/A,,Clear,260,2012-12-05 09:53:00
3:53 AM,33.1,21.0,61,30.11,10.0,West,8.1,-,N/A,,Clear,280,2012-12-05 10:53:00
4:53 AM,36.0,21.9,57,30.13,10.0,West,12.7,-,N/A,,Clear,270,2012-12-05 11:53:00
5:53 AM,36.0,21.9,57,30.11,10.0,SW,9.2,-,N/A,,Clear,220,2012-12-05 12:53:00
7:53 AM,34.0,21.0,59,30.12,10.0,WSW,8.1,-,N/A,,Clear,250,2012-12-05 14:53:00
8:53 AM,50.0,23.0,35,30.05,10.0,WSW,9.2,-,N/A,,Clear,240,2012-12-05 15:53:00
9:53 AM,60.1,21.0,22,30.00,10.0,SW,17.3,20.7,N/A,,Clear,220,2012-12-05 16:53:00
10:53 AM,61.0,21.0,21,29.96,10.0,SW,13.8,-,N/A,,Clear,220,2012-12-05 17:53:00
11:53 AM,64.0,19.9,18,29.89,10.0,SSW,16.1,-,N/A,,Clear,200,2012-12-05 18:53:00
12:53 PM,62.1,21.0,21,29.87,10.0,SSW,12.7,-,N/A,,Clear,200,2012-12-05 19:53:00
1:53 PM,66.0,21.0,18,29.84,10.0,SSW,16.1,-,N/A,,Clear,200,2012-12-05 20:53:00
2:53 PM,64.0,21.0,19,29.83,10.0,SSW,11.5,-,N/A,,Clear,200,2012-12-05 21:53:00
3:53 PM,57.9,21.9,25,29.83,10.0,South,10.4,-,N/A,,Clear,180,2012-12-05 22:53:00
4:53 PM,51.1,21.0,31,29.83,10.0,South,11.5,-,N/A,,Clear,170,2012-12-05 23:53:00
5:53 PM,51.1,23.0,33,29.82,10.0,South,13.8,-,N/A,,Clear,180,2012-12-06 00:53:00
6:53 PM,50.0,26.1,39,29.82,10.0,South,12.7,-,N/A,,Clear,180,2012-12-06 01:53:00
7:53 PM,48.0,26.1,42,29.81,10.0,South,9.2,-,N/A,,Clear,190,2012-12-06 02:53:00
8:53 PM,44.1,24.1,45,29.76,10.0,Calm,Calm,-,N/A,,Clear,0,2012-12-06 03:53:00
9:53 PM,42.1,24.1,49,29.74,10.0,WSW,10.4,-,N/A,,Clear,240,2012-12-06 04:53:00
10:53 PM,43.0,25.0,49,29.76,10.0,NNW,6.9,-,N/A,,Clear,340,2012-12-06 05:53:00
11:53 PM,39.9,24.1,53,29.77,10.0,NNW,9.2,-,N/A,,Clear,340,2012-12-06 06:53:00